Location: Mohawk View
(42.7837°N, 73.7885°W)
Time: 07:37:26
(UTC+00:00)

SL-24 R/B - Pass Details

Date: 17 June 2021
Orbit: 716 x 1117 km, 91.9° (Epoch: 03 August)

Event Time Altitude Azimuth Distance (km) Brightness Sun altitude
Rises 02:55:00 0° 6° (N) 3,175 8.6 -18.2°
Reaches altitude 10° 02:57:21 10° 9° (N) 2,226 7.6 -18.4°
Maximum altitude 03:02:11 69° 93° (E) 769 4.3 -18.8°
Enters shadow 03:03:59 38° 165° (SSE) 1,094 4.8 -19.0°
